AirNav   Air Wisconsin Up To $57,000 Bonus
 
 441 users online  

KLQK Pickens County Airport
Pickens, South Carolina, USA

GOING TO PICKENS?


FAA INFORMATION EFFECTIVE 31 DECEMBER 2020

Location

FAA Identifier: LQK
Lat/Long: 34-48-35.9000N 082-42-10.4000W
34-48.598333N 082-42.173333W
34.8099722,-82.7028889
(estimated)
Elevation: 1013.4 ft. / 308.9 m (surveyed)
Variation: 04W (1995)
From city: 4 miles S of PICKENS, SC
Time zone: UTC -5 (UTC -4 during Daylight Saving Time)
Zip code: 29657

Airport Operations

Airport use: Open to the public
Control tower: no
ARTCC: ATLANTA CENTER
FSS: ANDERSON FLIGHT SERVICE STATION
NOTAMs facility: AND (NOTAM-D service available)
Attendance: 0800-1700
Wind indicator: lighted
Segmented circle: yes
Lights: ACTVT PAPI RWY 05 & 23; MIRL RWY 05/23 - CTAF.
Beacon: white-green (lighted land airport)
Operates sunset to sunrise.

Airport Communications

CTAF/UNICOM: 122.8
WX AWOS-3: 120.0 (864-843-5801)
GREER APPROACH: 118.8
GREER DEPARTURE: 118.8
WX ASOS at CEU (12 nm SW): 119.275 (864-653-8855)
WX AWOS-3 at GYH (16 nm E): 127.325 (864-277-5674)
WX ASOS at GMU (18 nm E): 127.075 (864-239-0014)
WX ASOS at AND (19 nm S): 120.675
  • APCH/DEP SVC PRVDD BY ATLANTA ARTCC ON FREQS 134.8/379.95 (MOUNT OGLETHORPE RCAG) WHEN APCH CTL CLSD.

Nearby radio navigation aids

VOR radial/distance  VOR name  Freq  Var
ELWr010/23.8ELECTRIC CITY VORTAC108.6000E
ODFr077/30.1FOOTHILLS VOR/DME113.4000E

 
NDB name  Hdg/Dist  Freq  Var  ID
DYANA303/14.633804WGY --. -.--
BROAD RIVER209/30.037907WBRA -... .-. .-
FAIRMONT266/35.724805WFRT ..-. .-. -

Airport Services

Fuel available: 100LL JET-A
Parking: hangars and tiedowns
Airframe service: MINOR
Powerplant service: MAJOR
Bottled oxygen: NONE
Bulk oxygen: NONE

Runway Information

Runway 5/23

Dimensions: 5002 x 100 ft. / 1525 x 30 m
Surface: asphalt, in good condition
Weight bearing capacity: 
PCN 29 /F/C/X/T
Single wheel: 75.0
Double wheel: 101.0
Runway edge lights: medium intensity
RUNWAY 5  RUNWAY 23
Latitude: 34-48.301308N34-48.895338N
Longitude: 082-42.519282W082-41.826300W
Elevation: 963.7 ft.1013.4 ft.
Traffic pattern: leftleft
Runway heading: 048 magnetic, 044 true228 magnetic, 224 true
Markings: nonprecision, in good conditionnonprecision, in good condition
Visual slope indicator: 2-light PAPI on left (3.00 degrees glide path)2-light PAPI on left (3.00 degrees glide path)
Runway end identifier lights: nono
Touchdown point: yes, no lightsyes, no lights

Airport Ownership and Management from official FAA records

Ownership: Publicly-owned
Owner: PICKENS COUNTY
222 MCDANIEL AVE; B-2
PICKENS, SC 29671
Phone (864) 898-5844
Manager: CARLOS SALINAS
240 AIRPORT ROAD
29657
Phone 864-843-5803

Airport Operational Statistics

Aircraft based on the field: 34
Single engine airplanes: 30
Multi engine airplanes: 2
Jet airplanes: 2
    
Aircraft operations: avg 30/day *
48% transient general aviation
37% local general aviation
9% military
6% air taxi
* for 12-month period ending 17 September 2019

Additional Remarks

NOISE ABATEMENT PROCEDURE IN EFFECT, PHONE 864-843-5803.
FOR CD CTC GREER APCH AT 864-877-8275. WHEN GREER APCH CLSD, FOR CD CTC ATLANTA ARTCC AT 770-210-7692.

Instrument Procedures

NOTE: All procedures below are presented as PDF files. If you need a reader for these files, you should download the free Adobe Reader.

NOT FOR NAVIGATION. Please procure official charts for flight.
FAA instrument procedures published for use from 31 December 2020 at 0901Z to 28 January 2021 at 0900Z.

 
IAPs - Instrument Approach Procedures
RNAV (GPS) RWY 05   download (301KB)
RNAV (GPS) RWY 23   download (301KB)
NOTE: Special Take-Off Minimums/Departure Procedures apply   download (141KB)

Other nearby airports with instrument procedures:

KCEU - Oconee County Regional Airport (12 nm SW)
KGYH - Donaldson Field Airport (16 nm E)
KGMU - Greenville Downtown Airport (18 nm E)
KAND - Anderson Regional Airport (19 nm S)
KGSP - Greenville Spartanburg International Airport (24 nm E)
 
Loc | Ops | Rwys | IFR | FBO | Links
Com | Nav | Svcs | Stats | Notes
Area around KLQK (Pickens County Airport)
 
Road maps at: MapQuest Bing Google
 
Aerial photo
WARNING: Photo may not be current or correct
Aerial photo of KLQK (Pickens County Airport)
Photo courtesy of AirNav, LLC
Photo taken 07-Aug-2011
looking west.

Do you have a better or more recent aerial photo of Pickens County Airport that you would like to share? If so, please send us your photo.

 
Sectional chart

 
Airport distance calculator
Flying to Pickens County Airport? Find the distance to fly.

From to KLQK

Sunrise and sunset
Times for 26-Jan-2021
 Local
(UTC-5)
 Zulu
(UTC)
Morning civil twilight07:0712:07
Sunrise07:3412:34
Sunset17:5322:53
Evening civil twilight18:1923:19

Current date and time
Zulu (UTC)  26-Jan-2021 10:06:24
Local (UTC-5)  26-Jan-2021 05:06:24
 
METAR
KLQK 260955Z AUTO 12004KT 3/4SM +RA OVC008 11/11 A2977 RMK AO2 P0017 T01080108
KCEU 
12nm SW 
260954Z AUTO 19003KT 1/2SM RA FG BKN009 OVC085 10/10 A2979 RMK AO2 LTG DSNT SE SLP086 P0009 T01000100
KGYH 
16nm E 
260955Z AUTO 03003KT 4SM RA BKN005 11/11 A2980 RMK AO2 LTG DSNT S P0002
KGMU 
18nm E 
260953Z AUTO 05007KT 5SM RA BR OVC008 11/09 A2980 RMK AO2 LTG DSNT S CIG 005V010 SLP092 P0010 T01060094
KAND 
19nm S 
260956Z AUTO 00000KT 4SM VCTS RA BR FEW006 BKN095 OVC110 12/12 A2978 RMK AO2 LTG DSNT E RAB09 TSB31E46 SLP081 P0013 T01170117
TAF
KGMU 
18nm E 
260658Z 2607/2706 08006KT 3SM -SHRA BR OVC004 WS020/22030KT TEMPO 2609/2612 1SM SHRA BR FM261200 22007KT 1/2SM -SHRA FG OVC002 FM261600 23008KT 1SM BR VCSH OVC007 FM261800 24010G18KT P6SM SCT060 FM270000 25003KT P6SM BKN250
KAND 
19nm S 
260637Z 2607/2706 12006KT 6SM BR VCSH SCT003 OVC020 FM260900 21007KT 1SM -SHRA BR VCTS OVC003CB FM261400 24008KT 6SM BR VCSH OVC006 FM261700 24009G16KT P6SM SCT040 BKN250 FM270000 25004KT P6SM BKN200
NOTAMs
Click for the latest NOTAMs
NOTAMs are issued by the DoD/FAA and will open in a separate window not controlled by AirNav.

 

 
 

FBO, Fuel Providers, and Aircraft Ground Support

  
 Business Name 
 
 Contact 
 
 Services / Description 
 
Fuel Prices
 
Comments
  
 Pickens County Airport
UNICOM 122.80
864-843-5803
[web site]
[email]
CLEMSON shuttle FRIDAYS and MONDAYS 8am-4pm during NCAAF (20-25 minutes). NO RAMP FEES WITH FUEL BUYS. CALL TO RESERVE RAMP SPOT. RENTAL CARS/CREW CAR AVAILABLE. SMOKIN PIG BBQ 6 MILES. LQK HOURS 8am-5pm MON-SUN. Full Service Maintenance Facility -- Performance Air, Inc (864)-449-4043
 
AirBoss™ fuel program  
 
More info about Pickens County Airport
Shell
100LL Jet A
FS $4.25 $3.99 
SS $3.85 --- 
GUARANTEED
AirBossMEMBER
PRICING
FS $4.10 $3.84 
 
   write
FS=Full service
SS=Self service
Update Fuel Prices
 

Would you like to see your business listed on this page?

 If your business provides an interesting product or service to pilots, flight crews, aircraft, or users of the Pickens County Airport, you should consider listing it here.  To start the listing process, click on the button below
 
Add a business
 

Other Pages about Pickens County Airport

www.pickensairport.com
 
Update a link
 
Copyright © AirNav, LLC. All rights reserved. Privacy Policy  Contact